Wind_Speed
27 28 27 27 27 26 26 26 26 26 26 26 26 25 25 26 26 26 26 26 27 28 29 30 30 29 30 30 30 30 29 29 29 29 30 30 29 29 29 30 29 29 30 30
27 28 28 28 28 28 27 27 27 27 27 27 26 25 25 25 25 25 25 26 27 27 28 28 29 30 30 30 31 31 30 30 29 29 30 30 30 30 29 29 29 30 30 30
28 28 28 29 29 29 29 28 28 28 28 29 28 26 26 26 26 26 26 26 27 27 28 28 28 28 29 29 29 30 30 30 30 30 30 30 30 30 30 30 30 30 30 30
28 28 28 28 29 30 30 29 29 29 29 29 28 28 26 27 27 27 26 25 26 26 27 27 27 28 28 28 28 29 30 30 30 31 31 31 30 30 30 31 30 31 30 31
27 28 28 29 29 30 30 29 30 30 29 29 28 29 27 27 26 26 26 25 26 25 25 26 26 27 28 27 28 28 29 29 30 30 31 31 31 31 31 31 31 31 31 31
27 28 29 29 29 29 30 30 30 31 31 31 28 30 28 27 26 26 25 25 25 25 25 26 26 26 27 27 28 28 29 29 29 30 30 31 32 32 32 32 32 32 32 32
27 28 28 29 29 29 29 30 31 32 32 31 29 30 29 28 26 26 25 25 26 26 26 26 26 26 26 27 28 29 29 30 31 31 31 31 32 32 32 33 32 32 32 32
27 27 27 28 28 29 29 30 31 32 31 31 30 31 29 28 27 27 26 26 26 26 26 26 26 26 26 27 28 29 30 30 31 32 32 33 33 32 32 33 33 33 32 32
27 28 28 28 28 29 29 29 29 31 31 31 30 30 30 28 28 28 27 27 26 26 27 27 27 27 27 27 28 29 30 31 32 32 33 34 34 33 33 32 33 33 33 33
28 29 29 29 29 29 29 29 29 30 31 31 30 29 28 27 28 29 28 28 27 27 27 28 28 28 29 29 29 30 31 31 32 33 33 34 34 34 34 34 33 33 34 34
29 29 28 28 29 29 29 29 30 31 32 32 30 28 28 28 28 28 28 28 28 27 28 29 30 30 30 30 30 31 31 32 32 32 33 34 34 34 34 35 34 34 35 35
29 30 30 29 30 30 31 31 32 33 33 33 32 29 28 29 29 29 28 28 29 29 29 30 30 31 31 31 32 32 32 32 32 33 33 33 34 34 34 35 35 35 36 36
31 32 31 31 31 31 32 32 33 34 35 35 34 32 30 29 30 30 30 30 30 31 31 31 31 31 32 32 32 32 33 33 34 34 34 34 34 35 35 36 36 36 37 37
33 33 33 33 32 33 33 33 34 35 36 37 36 34 32 33 33 32 32 32 32 31 32 32 33 33 34 34 34 33 33 34 34 34 35 35 35 35 36 36 37 38 38 38
35 35 34 34 35 35 35 35 35 36 37 38 37 36 34 34 34 34 35 34 34 34 34 34 34 35 35 35 35 35 35 35 35 35 36 36 36 36 36 37 37 38 39 39
38 38 37 36 36 37 37 36 37 37 38 39 39 38 37 38 37 37 36 36 37 36 36 36 36 36 36 36 37 37 37 37 37 37 37 37 37 37 37 37 38 38 39 39
40 40 40 40 39 40 40 37 37 38 38 38 39 38 38 39 39 39 38 38 38 37 37 37 37 37 37 38 38 38 39 39 39 39 39 39 38 38 38 38 39 39 40 40
40 40 41 42 43 44 41 40 40 40 39 39 40 40 40 40 41 41 41 40 39 39 39 39 38 38 39 39 40 40 40 40 40 40 40 40 40 41 41 40 41 41 41 41
41 41 43 43 45 45 43 41 42 43 42 41 42 42 42 42 43 43 43 43 43 42 42 42 41 41 41 41 41 42 42 42 42 42 42 42 42 43 43 43 42 43 43 43
42 42 44 45 46 46 43 42 43 44 45 43 44 44 44 44 45 44 44 45 45 45 45 44 44 44 43 43 43 43 43 43 44 44 44 44 44 44 44 44 45 45 45 45
42 42 44 45 46 47 44 43 43 44 43 44 44 44 44 45 45 45 46 46 46 47 47 47 46 46 45 45 46 46 46 46 45 45 45 45 45 45 46 46 46 46 46 46
44 43 43 43 45 44 43 43 44 44 45 45 45 45 45 46 46 46 46 46 47 48 48 48 48 48 48 47 47 46 47 47 46 46 46 46 46 46 47 47 47 47 47 48
45 44 44 44 44 44 44 43 43 44 44 45 46 46 47 47 47 47 47 47 47 48 48 48 49 48 48 48 48 47 47 47 47 47 47 47 47 47 47 48 48 48 48 49
46 46 46 45 44 43 43 43 44 45 45 46 46 47 48 48 48 48 48 48 48 47 47 48 48 49 49 49 48 48 48 48 48 48 48 47 47 48 48 48 48 49 49 50
46 46 47 47 45 44 43 43 44 45 46 46 46 47 47 48 48 49 49 50 50 49 49 49 49 49 49 49 49 49 49 49 48 48 49 48 49 49 49 49 49 50 50 50
46 47 48 47 46 46 44 45 45 46 47 47 47 47 47 48 48 49 49 49 49 49 49 50 50 50 50 50 50 50 50 50 50 50 50 50 50 50 50 50 50 50 51 51
Wind_Direction
253 253 253 255 256 258 260 260 260 261 264 265 265 263 262 263 265 264 262 261 259 259 259 255 253 253 254 254 255 257 258 259 260 261 262 263 264 266 270 272 274 274 275 276
255 254 254 255 256 257 258 259 260 261 263 265 265 262 262 264 266 265 264 263 262 261 261 256 254 254 254 255 255 257 259 261 261 261 263 264 264 267 270 272 273 274 276 276
256 256 255 255 256 257 258 260 260 262 263 265 265 262 261 263 265 265 265 265 264 262 261 257 254 255 255 256 257 257 259 260 261 262 264 265 266 267 269 270 272 274 275 276
257 255 255 255 256 257 258 259 260 262 263 264 265 265 261 263 265 266 267 267 266 264 262 259 256 256 256 257 258 260 261 261 261 262 263 265 266 267 269 270 271 273 275 275
257 256 255 256 257 258 258 258 260 261 262 263 264 265 263 264 265 266 267 267 265 264 263 259 257 257 257 257 259 261 262 263 263 264 265 266 267 268 269 269 271 273 275 275
257 255 255 256 257 257 257 258 258 260 262 262 263 265 264 264 265 266 266 265 264 263 261 261 258 259 258 258 261 263 263 264 265 266 267 269 270 270 269 269 272 272 273 274
257 255 255 256 257 257 257 257 258 260 260 262 264 263 265 265 265 266 267 265 264 262 262 261 259 259 260 260 261 264 265 265 266 267 269 270 271 270 269 269 271 272 272 272
259 256 255 256 256 256 256 257 257 260 263 264 263 263 265 266 265 266 266 266 264 262 261 261 260 260 262 263 264 265 267 267 267 268 270 270 271 270 270 270 270 271 271 272
264 261 257 255 256 256 255 255 258 260 262 264 265 266 266 265 265 264 265 265 264 262 262 261 261 262 264 264 264 266 267 267 267 269 270 271 270 269 270 270 270 270 271 272
266 265 260 256 255 255 257 257 257 258 261 264 266 268 269 267 266 264 264 264 263 262 262 262 261 263 265 264 264 266 268 269 269 269 270 271 270 269 269 269 270 271 272 273
266 265 261 257 255 257 256 256 256 258 259 263 267 267 268 269 267 265 263 263 264 263 263 263 264 265 266 266 266 268 269 271 271 271 271 271 271 270 269 269 270 271 271 272
266 264 262 259 257 257 257 256 256 257 259 261 265 266 266 268 268 267 265 265 265 265 265 265 266 266 266 267 268 268 269 271 271 272 272 272 270 270 269 269 269 270 270 272
264 264 264 261 259 258 257 256 258 259 259 261 262 263 265 266 266 267 267 265 265 266 266 267 267 267 267 268 269 269 270 271 271 272 272 272 271 270 269 269 269 270 271 272
264 263 263 264 263 261 259 257 258 259 261 261 262 263 263 266 265 265 265 266 266 267 267 267 267 267 268 269 270 270 270 271 272 272 273 273 272 271 270 269 269 270 271 272
264 265 264 264 262 261 261 259 259 259 261 263 263 263 264 265 265 265 266 266 266 266 267 268 268 268 269 269 270 270 270 271 272 273 273 273 273 273 272 271 270 271 272 272
264 264 264 264 263 262 261 260 261 261 263 265 265 265 264 265 266 265 266 266 266 267 268 269 269 269 270 270 271 271 271 272 272 272 273 273 274 273 272 272 272 272 272 273
262 264 265 264 263 262 261 262 263 264 265 266 266 268 267 265 265 266 266 267 268 268 268 268 269 269 270 270 271 272 273 273 273 272 272 272 272 272 272 272 273 273 273 274
262 263 265 266 265 263 265 265 265 265 265 266 266 266 267 266 265 265 265 266 267 267 267 268 269 269 270 270 271 272 273 273 273 272 272 272 272 272 272 273 273 273 273 274
263 263 265 266 267 266 265 267 267 267 266 266 267 267 266 266 266 266 266 266 266 267 267 268 269 270 270 270 271 272 272 272 272 272 272 272 272 273 273 274 273 273 273 274
262 263 265 267 268 268 269 270 269 269 268 268 269 268 267 267 267 268 268 268 268 268 268 268 268 269 270 270 271 272 272 273 273 273 273 273 273 273 273 274 274 274 274 274
262 264 265 267 269 269 271 272 271 270 270 269 268 268 267 267 268 268 268 268 268 269 269 269 269 269 270 271 271 272 272 273 273 272 273 273 274 274 274 274 274 274 274 275
263 264 265 267 268 270 272 271 270 271 269 269 269 268 268 268 268 268 268 269 269 269 269 270 269 270 270 270 271 272 272 272 272 272 272 273 273 274 274 274 274 274 275 276
262 264 265 266 268 269 269 270 270 270 270 269 269 268 268 268 268 268 268 269 269 270 270 270 270 270 270 270 271 271 271 272 272 272 272 272 273 273 274 274 275 275 276 277
261 263 264 265 267 268 268 268 268 268 268 268 269 269 269 269 269 268 268 269 269 270 270 269 269 269 269 270 270 270 270 270 270 271 271 271 272 273 274 274 275 275 276 277
262 262 263 264 265 265 266 266 266 266 267 269 270 271 271 270 270 269 269 269 269 269 269 269 268 268 268 269 269 270 269 269 270 270 270 271 272 273 273 274 274 275 276 277
262 263 263 263 263 264 264 265 266 266 265 266 267 268 269 270 270 270 270 270 270 269 269 269 269 268 268 269 269 269 269 269 269 270 270 272 273 273 273 274 274 275 276 276
Height
5703 5706 5707 5710 5711 5713 5713 5714 5715 5716 5716 5716 5717 5718 5718 5718 5719 5720 5720 5721 5722 5723 5724 5725 5727 5729 5730 5732 5733 5734 5736 5737 5738 5738 5739 5740 5741 5741 5741 5741 5740 5740 5739 5738
5698 5700 5703 5703 5704 5705 5706 5707 5709 5710 5709 5710 5711 5712 5712 5712 5712 5713 5714 5715 5716 5716 5717 5718 5720 5721 5723 5725 5726 5727 5729 5730 5731 5731 5732 5733 5733 5734 5734 5733 5733 5733 5732 5732
5691 5694 5695 5696 5697 5699 5700 5701 5702 5703 5703 5703 5704 5706 5706 5707 5706 5707 5708 5708 5709 5709 5710 5711 5713 5714 5716 5718 5719 5720 5721 5722 5723 5724 5725 5725 5726 5726 5726 5726 5726 5726 5725 5725
5684 5686 5688 5689 5691 5692 5693 5695 5696 5696 5696 5697 5698 5697 5701 5700 5701 5701 5702 5702 5703 5703 5703 5704 5706 5708 5709 5711 5712 5713 5714 5715 5716 5716 5717 5718 5718 5719 5719 5719 5719 5719 5718 5718
5677 5679 5680 5682 5684 5685 5687 5688 5688 5689 5689 5690 5691 5690 5694 5693 5694 5696 5696 5696 5696 5697 5697 5698 5699 5701 5702 5704 5705 5706 5707 5708 5708 5709 5710 5710 5711 5711 5711 5711 5711 5711 5711 5710
5670 5672 5673 5675 5677 5678 5679 5681 5681 5681 5681 5683 5686 5684 5686 5687 5689 5690 5690 5690 5690 5691 5692 5692 5693 5694 5696 5697 5698 5699 5700 5701 5701 5702 5702 5703 5703 5703 5703 5703 5704 5703 5703 5703
5663 5665 5666 5668 5670 5671 5672 5673 5674 5674 5674 5676 5679 5677 5679 5681 5683 5683 5683 5684 5684 5685 5686 5686 5687 5688 5689 5690 5691 5692 5693 5693 5694 5694 5694 5695 5695 5695 5695 5695 5695 5695 5695 5695
5656 5658 5660 5661 5662 5663 5664 5666 5668 5668 5668 5670 5671 5670 5674 5675 5676 5676 5677 5677 5677 5679 5680 5680 5681 5682 5683 5684 5684 5685 5686 5686 5686 5686 5686 5686 5686 5686 5686 5687 5687 5687 5687 5687
5649 5651 5653 5654 5655 5656 5657 5658 5661 5661 5661 5662 5663 5664 5667 5668 5669 5670 5670 5671 5672 5672 5673 5674 5675 5676 5676 5677 5677 5678 5678 5678 5678 5678 5678 5677 5677 5678 5678 5678 5678 5679 5678 5678
5642 5644 5646 5647 5648 5649 5651 5652 5653 5653 5653 5654 5656 5658 5660 5661 5662 5663 5663 5664 5665 5666 5666 5667 5668 5669 5669 5670 5670 5670 5670 5670 5669 5669 5668 5668 5668 5668 5669 5669 5669 5670 5670 5669
5636 5637 5639 5640 5641 5642 5644 5645 5645 5646 5647 5648 5649 5653 5653 5653 5654 5655 5656 5657 5658 5658 5659 5660 5661 5661 5661 5662 5662 5662 5662 5661 5660 5660 5659 5659 5659 5659 5660 5660 5660 5661 5661 5660
5629 5629 5630 5632 5634 5635 5636 5637 5638 5639 5640 5640 5641 5647 5645 5646 5646 5647 5648 5649 5650 5651 5651 5652 5653 5653 5653 5653 5653 5653 5653 5652 5652 5651 5650 5650 5649 5650 5650 5651 5651 5651 5651 5651
5621 5622 5623 5624 5628 5628 5628 5630 5630 5631 5632 5632 5633 5639 5637 5638 5638 5639 5640 5641 5642 5642 5643 5644 5644 5644 5645 5645 5645 5644 5644 5644 5643 5642 5642 5641 5641 5641 5641 5641 5641 5642 5641 5641
5613 5613 5616 5617 5617 5618 5619 5621 5622 5622 5622 5624 5626 5628 5630 5629 5630 5631 5631 5632 5633 5634 5634 5635 5635 5635 5636 5636 5635 5635 5635 5634 5634 5633 5633 5632 5632 5632 5631 5631 5632 5632 5631 5631
5604 5605 5606 5607 5608 5609 5610 5612 5612 5613 5614 5615 5618 5619 5621 5620 5620 5621 5622 5623 5624 5624 5625 5625 5626 5626 5626 5626 5626 5626 5625 5625 5624 5624 5624 5623 5623 5622 5622 5622 5621 5621 5621 5621
5594 5595 5596 5598 5599 5599 5600 5602 5603 5604 5605 5606 5607 5609 5611 5610 5611 5611 5612 5613 5614 5614 5615 5615 5616 5616 5616 5616 5616 5615 5615 5615 5614 5614 5614 5613 5613 5612 5612 5611 5611 5611 5611 5610
5584 5585 5586 5587 5588 5587 5590 5594 5594 5595 5596 5597 5597 5600 5600 5600 5600 5601 5601 5602 5603 5604 5604 5605 5605 5605 5605 5605 5605 5605 5604 5604 5603 5603 5603 5603 5602 5602 5602 5601 5600 5600 5600 5599
5574 5575 5575 5575 5577 5576 5584 5584 5584 5584 5586 5586 5587 5588 5588 5589 5589 5590 5590 5591 5592 5592 5593 5593 5593 5594 5594 5594 5594 5593 5593 5593 5592 5592 5592 5591 5591 5591 5590 5590 5589 5589 5588 5587
5563 5564 5563 5564 5563 5564 5571 5573 5572 5572 5574 5575 5575 5576 5576 5577 5577 5578 5579 5579 5580 5581 5581 5581 5582 5582 5582 5582 5581 5581 5581 5581 5581 5580 5580 5579 5579 5579 5578 5578 5577 5577 5576 5575
5552 5552 5553 5552 5551 5553 5560 5561 5560 5560 5561 5564 5563 5563 5564 5564 5565 5567 5566 5567 5567 5568 5568 5569 5569 5569 5569 5569 5569 5569 5568 5568 5568 5568 5567 5566 5566 5566 5565 5565 5564 5564 5563 5562
5540 5540 5541 5541 5540 5542 5548 5548 5547 5548 5550 5550 5550 5550 5551 5552 5553 5553 5553 5554 5554 5554 5555 5555 5556 5556 5556 5555 5555 5555 5555 5555 5555 5554 5553 5553 5552 5552 5551 5551 5550 5550 5549 5549
5528 5528 5529 5529 5528 5534 5535 5535 5535 5535 5535 5536 5536 5537 5538 5539 5539 5539 5540 5540 5541 5541 5541 5541 5542 5542 5542 5542 5541 5541 5541 5541 5540 5540 5539 5539 5538 5538 5537 5537 5536 5535 5535 5534
5514 5517 5517 5518 5520 5521 5521 5522 5521 5522 5522 5522 5523 5523 5524 5525 5525 5526 5526 5527 5527 5527 5527 5527 5527 5527 5527 5527 5527 5527 5527 5526 5526 5525 5525 5525 5524 5523 5523 5522 5521 5521 5520 5519
5501 5503 5503 5505 5507 5507 5508 5508 5508 5508 5508 5509 5509 5510 5510 5511 5511 5512 5512 5512 5513 5513 5512 5512 5512 5513 5513 5512 5512 5512 5512 5512 5511 5511 5510 5510 5509 5509 5508 5507 5507 5506 5505 5504
5488 5489 5489 5491 5493 5493 5494 5494 5494 5494 5494 5495 5496 5496 5496 5496 5497 5497 5497 5498 5498 5498 5498 5497 5497 5497 5498 5497 5497 5497 5496 5496 5496 5496 5495 5495 5494 5494 5493 5493 5492 5491 5489 5488
5476 5476 5476 5477 5479 5478 5480 5480 5480 5480 5480 5481 5481 5482 5482 5481 5482 5482 5482 5482 5482 5482 5482 5482 5482 5482 5482 5482 5481 5481 5481 5481 5481 5480 5480 5479 5479 5478 5478 5477 5476 5474 5473 5472